Flag for Switzerland Weather past 2 weeks in Solothurn, Solothurn, Switzerland

Now
63 °F

Mild.


Feels Like: 63 °F
Forecast: 56 / 72 °F
Wind: 3 mph from Northeast

Location: Grenchen

Current Time: May 4, 2015 at 10:15:10 PM

Latest Report: May 4, 2015 at 9:00 PM


Visibility: N/A

Pressure: 29.74 "Hg

Humidity: 88%

Dew point: 59 °F

Location of SolothurnLocation

Historic Weather in Solothurn — Graph

°F

Solothurn temperature yesterday

Maximum temperature yesterday: 64 °F (at 6:00 PM)
Minimum temperature yesterday: 52 °F (at 1:00 AM)
Average temperature yesterday: 57 °F

Past Weeks' High & Low Weather Summary

 TemperatureHumidityPressure
High72 °F (Apr 22, 4:00 PM)100% (Apr 26, 6:00 AM)30.39 "Hg (Apr 26, 6:00 AM)
Low33 °F (Apr 29, 4:00 AM)22% (Apr 22, 5:00 PM)29.47 "Hg (Apr 27, 3:00 PM)
Average54 °F73%29.98 "Hg
* Reported Apr 19 9:00 PM — May 4 9:00 PM, Solothurn, Weather by CustomWeather, © 2015

Note: Actual official high and low records may vary slightly from our data, if they occured in-between our weather recording intervals... More about our weather records

Advertising

Solothurn weather history for previous 24 hours

 ConditionsComfort  
Time TempWeatherWind HumidityBarometerVisibility
9:00 PM
Mon, May 4
63 °FMild.3 mph88%29.74 "HgN/A
8:00 PM65 °FMild.3 mph88%29.75 "HgN/A
7:00 PM67 °FMild.2 mph79%29.77 "HgN/A
6:00 PM67 °FMild.3 mph77%29.79 "HgN/A
5:00 PM66 °FMild.2 mph76%29.81 "HgN/A
4:00 PM66 °FMild.2 mph72%29.83 "HgN/A
3:00 PM66 °FMild.2 mph75%29.85 "HgN/A
2:00 PM63 °FMild.2 mph85%29.88 "HgN/A
1:00 PM62 °FCool.5 mph89%29.90 "HgN/A
12:00 PM61 °FCool.2 mph93%29.91 "HgN/A
11:00 AM61 °FCool.1 mph95%29.90 "HgN/A
10:00 AM60 °FCool.No wind99%29.91 "HgN/A
9:00 AM59 °FCool.1 mph99%29.92 "HgN/A
8:00 AM59 °FCool.No wind100%29.91 "HgN/A
7:00 AM58 °FCool.2 mph99%29.90 "HgN/A
6:00 AM58 °FCool.2 mph99%29.89 "HgN/A
4:00 AM58 °FCool.2 mph99%29.88 "HgN/A
3:00 AM59 °FCool.2 mph100%29.89 "HgN/A
2:00 AM59 °FCool.3 mph99%29.88 "HgN/A
1:00 AM59 °FCool.3 mph99%29.88 "HgN/A
12:00 AM60 °FCool.5 mph98%29.86 "HgN/A
11:00 PM
Sun, May 3
60 °FCool.9 mph96%29.86 "HgN/A
10:00 PM61 °FCool.6 mph93%29.83 "HgN/A
Weather by CustomWeather, © 2015

See weather overviewHow to use our weather pages